DECAYED

FENGYUN 1C DEB, 30597 (Decayed)

Orbit data source: Space-Track

FENGYUN 1C DEB, 30597 was space debris in SSO originally from a launch on Mon, 10 May 1999 UTC launched from the Taiyaun Space Center, China (TSC). Fengyun 1C debris stems from the Chinese weather satellite Fengyun-1C, which was intentionally destroyed by a Chinese anti-satellite missile in 2007. This event dramatically increased the amount of space debris, with thousands of trackable fragments posing hazards to satellites and human spaceflight. The Fengyun 1C debris cloud has become a focal point in discussions about space sustainability and the need for international regulations to prevent the creation of new debris.

Not visible in the next 10 days
Identifier
30597, 1999-025AMC
Orbit
Decayed
Country
Flag of CNCN / PRC
Related business
Manufacturer
Unknown
Mission
Decayed spacecraft
Bus & Motor
Unknown
Mass
Unknown
Launch date (UTC)
1999-05-10 (27 years ago)
Launch vehicle
Unknown
Launch site
Taiyaun Space Center, China (TSC)
Object type
Payload
Rocket body
Debris
Shape & HBR
Unknown shape, 0.1 m
Radar Cross Section
Medium (>0.1 m² and <1 m²)

Expand to show TLE details & history
Last TLE update: 1 month ago

TLE from 1 month ago
0 FENGYUN 1C DEB
1 30597U 99025AMC 26224.93508953  .05847966  71958-1  10837-1 0  9993
2 30597  98.9029 210.4724 0018766 180.2560 179.8710 16.05781289 22063
Epoch: 2026-08-12T22:26Z
TLE epoch observation values (Epoch: 2026-08-12T22:26:31.735Z)
Latitude
-0.00004°
Longitude
-87.54171°
Altitude
274.056 km
Speed
7.736 km/s
True Right ascension
14h 01m 53s
True Declination
0° 00' 00"
Sunlit
Object was in daylight at epoch
Visualization orbit readout
Latitude
Unknown
Longitude
Unknown
Altitude
Unknown
Speed
Unknown
Apparent Right ascension
Unknown
Apparent Declination
Unknown
Sunlit
N/A
Visualization observer readout
Local Sidereal Time
01:59:07
Azimuth
Unknown
Elevation
Unknown
Doppler factor
Unknown
Orbital elements
Apogee altitude
267.816 km
Perigee altitude
242.919 km
Semi-major axis
6,633.504 km
Eccentricity
0.00188
Inclination
98.9029°
RAAN
210.4724°
Arg. of periapsis
180.256°
True anomaly
179.87148°
Mean anomaly
179.871°
Eccentric anomaly
179.87124°
Mean motion
4.01725 °/min
Orbital period
89.61 mins
BSTAR
0.010837
Loading maneuver chart data...
Computing Atmospheric mass density...

Documentation

Showing up to 5 results
|